This demonstration page uses our WeatherBlox Daily Observations layout. Learn more.

Hourly Observations for July 6, 2019

Temp ( °F °C ) Dew Point ( °F °C ) Humidity (%) Winds ( mph kmh ) Pressure ( in mb ) Visibility ( mi km ) Precip ( " mm )
12:15 am 00:15 Cloudy 73 22.7 70 21.1 91 91 NE 9 15 30.03 1017 10 16.09344 0 0
12:35 am 00:35 Cloudy 73 22.7 69 20.7 89 89 NE 8 13 30.03 1017 10 16.09344 0 0
12:55 am 00:55 Cloudy 73 22.7 69 20.5 87 87 NE 6 9 30.03 1017 10 16.09344 0 0
1:15 am 01:15 Cloudy 73 22.6 69 20.4 87 87 NNE 5 7 30.06 1018 10 16.09344 0 0
1:35 am 01:35 Cloudy 73 22.5 69 20.5 89 89 NNE 5 7 30.09 1019 10 16.09344 0 0
1:55 am 01:55 Cloudy 72 22.2 69 20.5 90 90 ENE 7 11 30.06 1018 10 16.09344 0 0
2:15 am 02:15 Cloudy 72 22 69 20.5 91 91 ENE 7 11 30.06 1018 10 16.09344 0 0
2:35 am 02:35 Cloudy 72 22 69 20.5 91 91 ENE 6 9 30.06 1018 10 16.09344 0 0
2:55 am 02:55 Cloudy 71 21.6 69 20.5 93 93 N 9 15 30.09 1019 10 16.09344 0 0
3:15 am 03:15 Cloudy 63 17.3 62 16.7 96 96 N 20 31 30.15 1021 4 6.437376 0.06 1.524
3:35 am 03:35 Cloudy with Thunderstorms 63 17 63 17 100 100 NNE 21 33 30.15 1021 3 4.828032 0.23 5.842
3:55 am 03:55 Cloudy 63 17.1 63 17 99 99 NE 8 13 30.15 1021 5 8.04672 0.31 7.874
4:15 am 04:15 Cloudy 63 17.3 62 16.9 98 98 E 8 13 30.15 1021 10 16.09344 0.02 0.508
4:35 am 04:35 Cloudy with Light Rain 63 17.3 62 16.7 96 96 E 12 19 30.12 1020 10 16.09344 0.04 1.016
4:55 am 04:55 Cloudy with Light Rain 64 17.5 63 17 97 97 ESE 15 24 30.15 1021 10 16.09344 0.05 1.27
5:15 am 05:15 Cloudy with Rain 64 17.5 63 17.1 98 98 SSE 9 15 30.15 1021 10 16.09344 0.02 0.508
5:35 am 05:35 Cloudy with Nearby Thunderstorms 64 17.5 63 17.2 98 98 S 7 11 30.18 1022 10 16.09344 0.08 2.032
5:55 am 05:55 Cloudy with Heavy Rain 64 17.7 63 17.4 98 98 W 9 15 30.21 1023 7 11.265408 0.11 2.794
6:15 am 06:15 Cloudy with Rain 63 17.3 63 17.2 99 99 WNW 8 13 30.24 1024 7 11.265408 0.06 1.524
6:35 am 06:35 Cloudy with Heavy Rain 63 17.1 63 17 99 99 WSW 8 13 30.24 1024 7 11.265408 0.13 3.302
6:55 am 06:55 Cloudy with Rain 63 17.1 63 17.1 100 100 SW 8 13 30.21 1023 10 16.09344 0.2 5.08
7:15 am 07:15 Cloudy with Light Rain 63 17.1 63 17.1 100 100 SW 10 17 30.21 1023 10 16.09344 0.02 0.508
7:35 am 07:35 Cloudy with Light Rain 64 17.6 64 17.6 100 100 W 7 11 30.18 1022 10 16.09344 0.03 0.762
7:55 am 07:55 Cloudy with Light Rain 64 17.5 64 17.5 100 100 W 9 15 30.18 1022 10 16.09344 0.04 1.016
8:15 am 08:15 Cloudy with Light Rain 64 17.7 64 17.7 100 100 W 10 17 30.18 1022 10 16.09344 0 0
8:35 am 08:35 Cloudy 65 18.3 65 18.1 99 99 W 12 19 30.12 1020 10 16.09344 0.01 0.254
8:55 am 08:55 Mostly Cloudy 65 18.6 64 17.9 96 96 W 8 13 30.09 1019 10 16.09344 0.01 0.254
9:15 am 09:15 Mostly Cloudy 66 18.8 65 18.1 96 96 SW 6 9 30.09 1019 10 16.09344 0 0
9:35 am 09:35 Mostly Cloudy 67 19.5 65 18.6 95 95 Calm 30.06 1018 10 16.09344 0 0
9:55 am 09:55 Partly Cloudy 68 20 66 18.7 92 92 Calm 30.06 1018 10 16.09344 0 0
10:15 am 10:15 Sunny 69 20.4 66 19 92 92 NW 7 11 30.06 1018 10 16.09344 0 0
10:35 am 10:35 Sunny 69 20.5 66 19 91 91 NE 3 6 30.09 1019 10 16.09344 0 0
10:55 am 10:55 Partly Cloudy 71 21.8 67 19.5 87 87 N 9 15 30.06 1018 10 16.09344 0 0
11:15 am 11:15 Partly Cloudy 72 22.4 66 18.8 80 80 N 8 13 30.09 1019 10 16.09344 0 0
11:35 am 11:35 Sunny 73 22.7 66 18.9 79 79 N 6 9 30.09 1019 10 16.09344 0 0
11:55 am 11:55 Sunny 74 23.4 65 18.4 74 74 N 6 9 30.09 1019 10 16.09344 0 0
12:15 pm 12:15 Partly Cloudy 74 23.5 65 18.1 72 72 N 10 17 30.09 1019 10 16.09344 0 0
12:35 pm 12:35 Partly Cloudy 75 23.7 65 18.5 73 73 N 9 15 30.09 1019 10 16.09344 0 0
12:55 pm 12:55 Sunny 75 23.9 65 18.5 72 72 N 7 11 30.12 1020 10 16.09344 0 0
1:15 pm 13:15 Sunny 75 24.1 66 18.7 72 72 NE 8 13 30.12 1020 10 16.09344 0 0
1:35 pm 13:35 Sunny 75 24.1 65 18.6 71 71 NNE 3 6 30.12 1020 10 16.09344 0 0
1:55 pm 13:55 Mostly Cloudy 75 24.1 67 19.5 76 76 ESE 7 11 30.09 1019 10 16.09344 0 0
2:15 pm 14:15 Partly Cloudy 76 24.3 68 19.8 76 76 NE 7 11 30.09 1019 10 16.09344 0 0
2:35 pm 14:35 Partly Cloudy 76 24.6 67 19.2 72 72 ENE 5 7 30.09 1019 10 16.09344 0 0
2:55 pm 14:55 Sunny 77 24.9 67 19.4 72 72 E 7 11 30.09 1019 10 16.09344 0 0
3:15 pm 15:15 Sunny 77 25.2 66 19 69 69 E 6 9 30.06 1018 10 16.09344 0 0
3:35 pm 15:35 Sunny 77 25.1 67 19.4 71 71 SE 5 7 30.06 1018 10 16.09344 0 0
3:55 pm 15:55 Sunny 77 25.2 67 19.4 70 70 ESE 3 6 30.06 1018 10 16.09344 0 0
4:15 pm 16:15 Sunny 78 25.7 68 19.9 70 70 E 5 7 30.03 1017 10 16.09344 0 0
4:35 pm 16:35 Partly Cloudy 78 25.6 67 19.3 68 68 E 5 7 30.03 1017 10 16.09344 0 0
4:55 pm 16:55 Sunny 79 25.9 66 18.7 65 65 E 3 6 30.03 1017 10 16.09344 0 0
5:15 pm 17:15 Sunny 78 25.7 65 18.3 64 64 ENE 5 7 30 1016 10 16.09344 0 0
5:35 pm 17:35 Sunny 78 25.8 65 18.2 63 63 Calm 30 1016 10 16.09344 0 0
5:55 pm 17:55 Sunny 79 26 65 18.2 62 62 ENE 3 6 30 1016 10 16.09344 0 0
6:15 pm 18:15 Sunny 79 25.9 65 18.4 63 63 ENE 3 6 30 1016 10 16.09344 0 0
6:35 pm 18:35 Sunny 78 25.7 65 18.6 65 65 E 6 9 30 1016 10 16.09344 0 0
6:55 pm 18:55 Sunny 78 25.8 65 18.6 65 65 E 6 9 30 1016 10 16.09344 0 0
7:15 pm 19:15 Sunny 78 25.6 67 19.2 68 68 E 5 7 30 1016 10 16.09344 0 0
7:35 pm 19:35 Sunny 78 25.5 66 18.7 66 66 ESE 6 9 30 1016 10 16.09344 0 0
7:55 pm 19:55 Sunny 77 25.2 66 19 69 69 ESE 3 6 30 1016 10 16.09344 0 0
8:15 pm 20:15 Sunny 77 25 69 20.4 76 76 Calm 30 1016 10 16.09344 0 0
8:35 pm 20:35 Sunny 76 24.5 69 20.5 78 78 SE 3 6 30 1016 10 16.09344 0 0
8:55 pm 20:55 Sunny 75 24 69 20.8 82 82 SE 5 7 30.03 1017 10 16.09344 0 0
9:15 pm 21:15 Clear 73 22.8 70 21 90 90 ESE 6 9 30.03 1017 10 16.09344 0 0
9:35 pm 21:35 Clear 72 22.1 69 20.7 92 92 SE 5 7 30.03 1017 10 16.09344 0 0
9:55 pm 21:55 Clear 71 21.8 69 20.7 94 94 SE 5 7 30.03 1017 10 16.09344 0 0
10:15 pm 22:15 Clear 70 21.1 69 20.3 95 95 SE 3 6 30.03 1017 10 16.09344 0 0
10:35 pm 22:35 Clear 70 21.2 68 20.2 94 94 SSE 3 6 30.03 1017 10 16.09344 0 0
10:55 pm 22:55 Clear 69 20.7 68 20 96 96 SE 5 7 30.03 1017 10 16.09344 0 0
11:15 pm 23:15 Clear 69 20.5 67 19.7 95 95 SE 3 6 30.06 1018 10 16.09344 0 0
11:35 pm 23:35 Clear 69 20.3 67 19.7 96 96 SE 3 6 30.06 1018 10 16.09344 0 0
11:55 pm 23:55 Clear 67 19.7 67 19.3 98 98 Calm 30.06 1018 10 16.09344 0 0

Powered by AerisWeather